Time,TemperatureF,DewpointF,PressureIn,WindDirection,WindDirectionDegrees,WindSpeedMPH,WindSpeedGustMPH,Humidity,HourlyPrecipIn,Conditions,Clouds,dailyrainin,SoftwareType,DateUTC
2013-09-06 00:00:00,65.5,55.8,28.79,ESE,112,0.0,0.0,71,0.00,,,0.00,VWS V14.01,2013-09-06 05:00:00,
2013-09-06 00:05:00,65.8,56.6,28.79,ESE,112,0.0,0.0,72,0.00,,,0.00,VWS V14.01,2013-09-06 05:05:00,
2013-09-06 00:10:00,65.8,56.6,28.79,ESE,112,0.0,0.0,72,0.00,,,0.00,VWS V14.01,2013-09-06 05:10:00,
2013-09-06 00:15:00,65.7,56.4,28.79,ESE,112,0.0,0.0,72,0.00,,,0.00,VWS V14.01,2013-09-06 05:15:00,
2013-09-06 00:20:00,65.5,56.2,28.79,ENE,68,0.0,0.0,72,0.00,,,0.00,VWS V14.01,2013-09-06 05:20:00,
2013-09-06 00:25:00,65.5,56.2,28.79,ENE,68,0.0,0.0,72,0.00,,,0.00,VWS V14.01,2013-09-06 05:25:00,
2013-09-06 00:30:00,65.3,56.0,28.79,ENE,68,0.0,0.0,72,0.00,,,0.00,VWS V14.01,2013-09-06 05:30:00,
2013-09-06 00:35:00,65.3,56.0,28.79,East,90,0.0,0.0,72,0.00,,,0.00,VWS V14.01,2013-09-06 05:35:00,
2013-09-06 00:40:00,65.3,56.0,28.79,East,90,0.0,0.0,72,0.00,,,0.00,VWS V14.01,2013-09-06 05:40:00,
2013-09-06 00:45:00,65.1,55.9,28.79,ESE,112,0.0,0.0,72,0.00,,,0.00,VWS V14.01,2013-09-06 05:45:00,
2013-09-06 00:50:00,64.8,55.5,28.79,ESE,112,0.0,0.0,72,0.00,,,0.00,VWS V14.01,2013-09-06 05:50:00,
2013-09-06 00:55:00,64.6,55.4,28.79,SE,135,0.0,0.0,72,0.00,,,0.00,VWS V14.01,2013-09-06 05:55:00,
2013-09-06 01:00:00,64.4,55.6,28.79,SE,135,0.0,0.0,73,0.00,,,0.00,VWS V14.01,2013-09-06 06:00:00,
2013-09-06 01:05:00,64.4,55.6,28.79,ESE,112,0.0,0.0,73,0.00,,,0.00,VWS V14.01,2013-09-06 06:05:00,
2013-09-06 01:10:00,64.2,55.8,28.79,ESE,112,0.0,0.0,74,0.00,,,0.00,VWS V14.01,2013-09-06 06:10:00,
2013-09-06 01:15:00,64.4,55.9,28.79,ESE,112,0.0,0.0,74,0.00,,,0.00,VWS V14.01,2013-09-06 06:15:00,
2013-09-06 01:20:00,64.6,56.5,28.79,ESE,112,0.0,0.0,75,0.00,,,0.00,VWS V14.01,2013-09-06 06:20:00,
2013-09-06 01:25:00,64.6,56.1,28.82,ESE,112,0.0,0.0,74,0.00,,,0.00,VWS V14.01,2013-09-06 06:25:00,
2013-09-06 01:30:00,64.8,56.7,28.82,ESE,112,0.0,0.0,75,0.00,,,0.00,VWS V14.01,2013-09-06 06:30:00,
2013-09-06 01:35:00,64.8,56.7,28.82,East,90,0.0,0.0,75,0.00,,,0.00,VWS V14.01,2013-09-06 06:35:00,
2013-09-06 01:40:00,65.1,58.5,28.79,ESE,112,3.1,6.3,79,0.00,,,0.00,VWS V14.01,2013-09-06 06:40:00,
2013-09-06 01:45:00,65.1,58.5,28.79,ESE,112,3.6,3.8,79,0.00,,,0.00,VWS V14.01,2013-09-06 06:45:00,
2013-09-06 01:50:00,65.3,59.0,28.79,SE,135,2.7,4.7,80,0.00,,,0.00,VWS V14.01,2013-09-06 06:50:00,
2013-09-06 01:55:00,64.9,57.9,28.79,ESE,112,2.7,2.9,78,0.00,,,0.00,VWS V14.01,2013-09-06 06:55:00,
2013-09-06 02:00:00,64.8,57.8,28.79,ESE,112,4.0,4.3,78,0.00,,,0.00,VWS V14.01,2013-09-06 07:00:00,
2013-09-06 02:05:00,64.6,57.6,28.79,ESE,112,3.6,4.0,78,0.00,,,0.00,VWS V14.01,2013-09-06 07:05:00,
2013-09-06 02:10:00,64.8,58.1,28.79,SE,135,3.6,5.6,79,0.00,,,0.00,VWS V14.01,2013-09-06 07:10:00,
2013-09-06 02:15:00,64.8,58.5,28.79,SE,135,3.1,4.0,80,0.00,,,0.00,VWS V14.01,2013-09-06 07:15:00,
2013-09-06 02:20:00,65.1,59.2,28.79,SE,135,2.0,4.3,81,0.00,,,0.00,VWS V14.01,2013-09-06 07:20:00,
2013-09-06 02:25:00,64.9,58.6,28.79,SE,135,1.6,2.9,80,0.00,,,0.00,VWS V14.01,2013-09-06 07:25:00,
2013-09-06 02:30:00,65.1,58.8,28.79,SE,135,2.5,3.4,80,0.00,,,0.00,VWS V14.01,2013-09-06 07:30:00,
2013-09-06 02:35:00,65.1,58.8,28.79,SE,135,2.2,2.9,80,0.00,,,0.00,VWS V14.01,2013-09-06 07:35:00,
2013-09-06 02:40:00,64.9,58.3,28.79,ESE,112,1.1,2.7,79,0.00,,,0.00,VWS V14.01,2013-09-06 07:40:00,
2013-09-06 02:45:00,64.9,58.3,28.79,SE,135,0.0,1.3,79,0.00,,,0.00,VWS V14.01,2013-09-06 07:45:00,
2013-09-06 02:50:00,64.9,58.3,28.79,ESE,112,1.6,2.0,79,0.00,,,0.00,VWS V14.01,2013-09-06 07:50:00,
2013-09-06 02:55:00,64.9,58.3,28.79,ENE,68,0.0,2.0,79,0.00,,,0.00,VWS V14.01,2013-09-06 07:55:00,
2013-09-06 03:00:00,64.9,58.3,28.79,ENE,68,2.2,2.5,79,0.00,,,0.00,VWS V14.01,2013-09-06 08:00:00,
2013-09-06 03:05:00,65.1,58.1,28.79,ENE,68,0.9,2.9,78,0.00,,,0.00,VWS V14.01,2013-09-06 08:05:00,
2013-09-06 03:10:00,64.9,57.9,28.79,ENE,68,2.5,2.5,78,0.00,,,0.00,VWS V14.01,2013-09-06 08:10:00,
2013-09-06 03:15:00,64.8,57.4,28.79,ENE,68,2.0,2.9,77,0.00,,,0.00,VWS V14.01,2013-09-06 08:15:00,
2013-09-06 03:20:00,64.8,57.4,28.79,ENE,68,2.0,2.9,77,0.00,,,0.00,VWS V14.01,2013-09-06 08:20:00,
2013-09-06 03:25:00,64.8,57.8,28.79,ESE,112,2.9,2.9,78,0.00,,,0.00,VWS V14.01,2013-09-06 08:25:00,
2013-09-06 03:30:00,64.9,57.9,28.79,ESE,112,0.9,2.9,78,0.00,,,0.00,VWS V14.01,2013-09-06 08:30:00,
2013-09-06 03:35:00,64.9,57.9,28.79,ESE,112,1.1,2.5,78,0.00,,,0.00,VWS V14.01,2013-09-06 08:35:00,
2013-09-06 03:40:00,64.8,57.4,28.79,East,90,0.9,2.2,77,0.00,,,0.00,VWS V14.01,2013-09-06 08:40:00,
2013-09-06 03:45:00,64.4,56.3,28.79,ESE,112,0.9,1.3,75,0.00,,,0.00,VWS V14.01,2013-09-06 08:45:00,
2013-09-06 03:50:00,64.0,56.0,28.79,ESE,112,0.0,0.9,75,0.00,,,0.00,VWS V14.01,2013-09-06 08:50:00,
2013-09-06 03:55:00,63.5,55.1,28.79,ESE,112,0.0,0.0,74,0.00,,,0.00,VWS V14.01,2013-09-06 08:55:00,
2013-09-06 04:00:00,63.1,55.1,28.79,SE,135,0.0,0.9,75,0.00,,,0.00,VWS V14.01,2013-09-06 09:00:00,
2013-09-06 04:05:00,63.0,54.9,28.79,SE,135,0.0,0.9,75,0.00,,,0.00,VWS V14.01,2013-09-06 09:05:00,
2013-09-06 04:10:00,62.8,55.1,28.79,SE,135,0.0,0.0,76,0.00,,,0.00,VWS V14.01,2013-09-06 09:10:00,
2013-09-06 04:15:00,62.6,54.9,28.79,ESE,112,0.0,0.0,76,0.00,,,0.00,VWS V14.01,2013-09-06 09:15:00,
2013-09-06 04:20:00,62.4,55.1,28.79,ESE,112,0.0,1.1,77,0.00,,,0.00,VWS V14.01,2013-09-06 09:20:00,
2013-09-06 04:25:00,62.2,55.0,28.79,SSE,158,0.0,0.9,77,0.00,,,0.00,VWS V14.01,2013-09-06 09:25:00,
2013-09-06 04:30:00,62.2,55.3,28.79,SSE,158,0.0,0.0,78,0.00,,,0.00,VWS V14.01,2013-09-06 09:30:00,
2013-09-06 04:35:00,62.2,55.3,28.79,SSE,158,0.0,0.0,78,0.00,,,0.00,VWS V14.01,2013-09-06 09:35:00,
2013-09-06 04:40:00,62.2,55.7,28.82,SSE,158,0.0,0.0,79,0.00,,,0.00,VWS V14.01,2013-09-06 09:40:00,
2013-09-06 04:45:00,62.4,56.2,28.82,SE,135,0.0,0.0,80,0.00,,,0.00,VWS V14.01,2013-09-06 09:45:00,
2013-09-06 04:50:00,62.6,56.3,28.82,SE,135,0.0,0.0,80,0.00,,,0.00,VWS V14.01,2013-09-06 09:50:00,
2013-09-06 04:55:00,63.0,56.7,28.82,ESE,112,0.0,0.9,80,0.00,,,0.00,VWS V14.01,2013-09-06 09:55:00,
2013-09-06 05:00:00,63.5,57.6,28.82,ESE,112,2.0,2.9,81,0.00,,,0.00,VWS V14.01,2013-09-06 10:00:00,
2013-09-06 05:05:00,64.0,58.1,28.82,ESE,112,2.7,3.1,81,0.00,,,0.00,VWS V14.01,2013-09-06 10:05:00,
2013-09-06 05:10:00,64.2,58.6,28.79,SE,135,2.7,3.1,82,0.00,,,0.00,VWS V14.01,2013-09-06 10:10:00,
2013-09-06 05:15:00,64.2,58.6,28.79,SE,135,1.1,2.7,82,0.00,,,0.00,VWS V14.01,2013-09-06 10:15:00,
2013-09-06 05:20:00,64.4,58.8,28.79,SE,135,1.3,2.2,82,0.00,,,0.00,VWS V14.01,2013-09-06 10:20:00,
2013-09-06 05:25:00,64.4,58.8,28.79,SE,135,0.0,2.0,82,0.00,,,0.00,VWS V14.01,2013-09-06 10:25:00,
2013-09-06 05:30:00,64.4,58.5,28.79,SE,135,0.0,0.0,81,0.00,,,0.00,VWS V14.01,2013-09-06 10:30:00,
2013-09-06 05:35:00,64.6,59.0,28.79,ESE,112,1.6,2.5,82,0.00,,,0.00,VWS V14.01,2013-09-06 10:35:00,
2013-09-06 05:40:00,64.8,59.1,28.79,SSE,158,1.6,2.5,82,0.00,,,0.00,VWS V14.01,2013-09-06 10:40:00,
2013-09-06 05:45:00,64.9,59.3,28.79,SSW,202,2.7,3.1,82,0.00,,,0.00,VWS V14.01,2013-09-06 10:45:00,
2013-09-06 05:50:00,65.1,59.8,28.79,SSW,202,3.4,3.4,83,0.00,,,0.00,VWS V14.01,2013-09-06 10:50:00,
2013-09-06 05:55:00,65.1,59.8,28.79,SSW,202,3.1,3.8,83,0.00,,,0.00,VWS V14.01,2013-09-06 10:55:00,
2013-09-06 06:00:00,65.1,59.5,28.79,SSE,158,4.0,4.3,82,0.00,,,0.00,VWS V14.01,2013-09-06 11:00:00,
2013-09-06 06:05:00,64.9,59.3,28.79,South,180,2.5,4.0,82,0.00,,,0.00,VWS V14.01,2013-09-06 11:05:00,
2013-09-06 06:10:00,64.8,59.1,28.79,South,180,2.9,3.1,82,0.00,,,0.00,VWS V14.01,2013-09-06 11:10:00,
2013-09-06 06:15:00,64.6,58.6,28.79,SSE,158,2.9,2.9,81,0.00,,,0.00,VWS V14.01,2013-09-06 11:15:00,
2013-09-06 06:20:00,64.6,59.0,28.79,SSE,158,3.6,4.0,82,0.00,,,0.00,VWS V14.01,2013-09-06 11:20:00,
2013-09-06 06:25:00,64.8,59.1,28.79,South,180,3.1,4.7,82,0.00,,,0.00,VWS V14.01,2013-09-06 11:25:00,
2013-09-06 06:30:00,64.8,59.1,28.79,SSE,158,3.6,3.8,82,0.00,,,0.00,VWS V14.01,2013-09-06 11:30:00,
2013-09-06 06:35:00,64.9,59.7,28.79,SSE,158,3.6,4.3,83,0.00,,,0.00,VWS V14.01,2013-09-06 11:35:00,
2013-09-06 06:40:00,65.1,59.8,28.79,SE,135,3.8,4.0,83,0.00,,,0.00,VWS V14.01,2013-09-06 11:40:00,
2013-09-06 06:45:00,65.3,60.0,28.79,ESE,112,3.8,4.7,83,0.00,,,0.00,VWS V14.01,2013-09-06 11:45:00,
2013-09-06 06:50:00,65.5,59.8,28.79,SSE,158,4.3,4.5,82,0.00,,,0.00,VWS V14.01,2013-09-06 11:50:00,
2013-09-06 06:55:00,65.7,59.7,28.79,SE,135,3.8,5.8,81,0.00,,,0.00,VWS V14.01,2013-09-06 11:55:00,
2013-09-06 07:00:00,65.7,59.3,28.79,SE,135,3.6,4.7,80,0.00,,,0.00,VWS V14.01,2013-09-06 12:00:00,
2013-09-06 07:05:00,66.0,59.7,28.79,SSE,158,3.6,4.3,80,0.00,,,0.00,VWS V14.01,2013-09-06 12:05:00,
2013-09-06 07:10:00,66.2,59.5,28.79,SSE,158,2.7,3.6,79,0.00,,,0.00,VWS V14.01,2013-09-06 12:10:00,
2013-09-06 07:15:00,66.4,59.0,28.79,SSE,158,4.0,5.8,77,0.00,,,0.00,VWS V14.01,2013-09-06 12:15:00,
2013-09-06 07:20:00,66.6,58.0,28.79,SE,135,5.4,6.9,74,0.00,,,0.00,VWS V14.01,2013-09-06 12:20:00,
2013-09-06 07:25:00,66.6,57.3,28.79,SSE,158,4.3,6.5,72,0.00,,,0.00,VWS V14.01,2013-09-06 12:25:00,
2013-09-06 07:30:00,66.7,57.4,28.79,SSE,158,4.3,6.3,72,0.00,,,0.00,VWS V14.01,2013-09-06 12:30:00,
2013-09-06 07:35:00,67.8,58.5,28.79,South,180,1.6,6.3,72,0.00,,,0.00,VWS V14.01,2013-09-06 12:35:00,
2013-09-06 07:40:00,68.2,57.6,28.79,SSW,202,3.6,4.3,69,0.00,,,0.00,VWS V14.01,2013-09-06 12:40:00,
2013-09-06 07:45:00,68.2,56.8,28.79,SSE,158,2.5,4.3,67,0.00,,,0.00,VWS V14.01,2013-09-06 12:45:00,
2013-09-06 07:50:00,68.2,56.4,28.79,SSW,202,2.7,4.7,66,0.00,,,0.00,VWS V14.01,2013-09-06 12:50:00,
2013-09-06 07:55:00,68.2,56.8,28.79,SSE,158,2.2,3.8,67,0.00,,,0.00,VWS V14.01,2013-09-06 12:55:00,
2013-09-06 08:00:00,68.7,57.3,28.79,SE,135,2.9,3.1,67,0.00,,,0.00,VWS V14.01,2013-09-06 13:00:00,
2013-09-06 08:05:00,69.4,57.6,28.79,SSE,158,3.8,3.8,66,0.00,,,0.00,VWS V14.01,2013-09-06 13:05:00,
2013-09-06 08:10:00,71.4,58.2,28.79,South,180,2.5,5.4,63,0.00,,,0.00,VWS V14.01,2013-09-06 13:10:00,
2013-09-06 08:15:00,72.0,54.4,28.79,SSE,158,4.7,6.3,54,0.00,,,0.00,VWS V14.01,2013-09-06 13:15:00,
2013-09-06 08:20:00,71.6,53.6,28.79,SSE,158,3.8,7.2,53,0.00,,,0.00,VWS V14.01,2013-09-06 13:20:00,
2013-09-06 08:25:00,71.4,53.4,28.79,SSE,158,3.1,5.4,53,0.00,,,0.00,VWS V14.01,2013-09-06 13:25:00,
2013-09-06 08:30:00,71.4,53.9,28.79,SSE,158,3.1,5.4,54,0.00,,,0.00,VWS V14.01,2013-09-06 13:30:00,
2013-09-06 08:35:00,71.4,53.9,28.79,SSE,158,5.8,7.2,54,0.00,,,0.00,VWS V14.01,2013-09-06 13:35:00,
2013-09-06 08:40:00,71.6,53.1,28.79,SSE,158,4.3,6.0,52,0.00,,,0.00,VWS V14.01,2013-09-06 13:40:00,
2013-09-06 08:45:00,72.1,53.6,28.79,SE,135,6.5,7.2,52,0.00,,,0.00,VWS V14.01,2013-09-06 13:45:00,
2013-09-06 08:50:00,72.5,53.4,28.79,South,180,4.3,7.4,51,0.00,,,0.00,VWS V14.01,2013-09-06 13:50:00,
2013-09-06 08:55:00,72.9,53.2,28.79,ESE,112,2.7,5.8,50,0.00,,,0.00,VWS V14.01,2013-09-06 13:55:00,
2013-09-06 09:00:00,73.6,53.3,28.79,SSE,158,3.4,6.5,49,0.00,,,0.00,VWS V14.01,2013-09-06 14:00:00,
2013-09-06 09:05:00,75.2,54.8,28.79,SSE,158,5.4,7.4,49,0.00,,,0.00,VWS V14.01,2013-09-06 14:05:00,
2013-09-06 09:10:00,76.3,53.4,28.79,SSE,158,4.0,7.4,45,0.00,,,0.00,VWS V14.01,2013-09-06 14:10:00,
2013-09-06 09:15:00,76.8,53.3,28.79,SSW,202,5.4,6.3,44,0.00,,,0.00,VWS V14.01,2013-09-06 14:15:00,
2013-09-06 09:20:00,77.9,53.0,28.79,SSE,158,4.0,7.2,42,0.00,,,0.00,VWS V14.01,2013-09-06 14:20:00,
2013-09-06 09:25:00,78.6,53.6,28.79,SSE,158,4.9,8.1,42,0.00,,,0.00,VWS V14.01,2013-09-06 14:25:00,
2013-09-06 09:30:00,79.3,53.0,28.79,SE,135,6.3,8.1,40,0.00,,,0.00,VWS V14.01,2013-09-06 14:30:00,
2013-09-06 09:35:00,79.9,53.4,28.79,South,180,7.2,7.8,40,0.00,,,0.00,VWS V14.01,2013-09-06 14:35:00,
2013-09-06 09:40:00,80.1,52.9,28.79,South,180,4.9,9.8,39,0.00,,,0.00,VWS V14.01,2013-09-06 14:40:00,
2013-09-06 09:45:00,80.4,53.2,28.79,SE,135,6.7,8.7,39,0.00,,,0.00,VWS V14.01,2013-09-06 14:45:00,
2013-09-06 09:50:00,80.4,53.2,28.79,SSE,158,8.7,10.5,39,0.00,,,0.00,VWS V14.01,2013-09-06 14:50:00,
2013-09-06 09:55:00,80.8,52.8,28.76,SSE,158,7.8,10.5,38,0.00,,,0.00,VWS V14.01,2013-09-06 14:55:00,
2013-09-06 10:00:00,80.8,52.1,28.76,SE,135,7.4,12.8,37,0.00,,,0.00,VWS V14.01,2013-09-06 15:00:00,
2013-09-06 10:05:00,81.1,52.4,28.76,South,180,7.4,9.8,37,0.00,,,0.00,VWS V14.01,2013-09-06 15:05:00,
2013-09-06 10:10:00,81.9,53.8,28.79,SSE,158,7.6,10.7,38,0.00,,,0.00,VWS V14.01,2013-09-06 15:10:00,
2013-09-06 10:15:00,82.0,52.5,28.79,South,180,9.8,10.5,36,0.00,,,0.00,VWS V14.01,2013-09-06 15:15:00,
2013-09-06 10:20:00,82.4,52.0,28.79,South,180,9.8,10.5,35,0.00,,,0.00,VWS V14.01,2013-09-06 15:20:00,
2013-09-06 10:25:00,82.6,52.2,28.76,SSE,158,8.7,10.7,35,0.00,,,0.00,VWS V14.01,2013-09-06 15:25:00,
2013-09-06 10:30:00,83.1,52.7,28.76,SSW,202,5.8,10.7,35,0.00,,,0.00,VWS V14.01,2013-09-06 15:30:00,
2013-09-06 10:35:00,83.1,51.9,28.76,SSW,202,6.5,12.5,34,0.00,,,0.00,VWS V14.01,2013-09-06 15:35:00,
2013-09-06 10:40:00,83.8,52.5,28.76,SSE,158,8.7,11.2,34,0.00,,,0.00,VWS V14.01,2013-09-06 15:40:00,
2013-09-06 10:45:00,83.5,51.4,28.76,SSE,158,10.1,16.8,33,0.00,,,0.00,VWS V14.01,2013-09-06 15:45:00,
2013-09-06 10:50:00,84.2,52.8,28.76,SSE,158,5.8,13.2,34,0.00,,,0.00,VWS V14.01,2013-09-06 15:50:00,
2013-09-06 10:55:00,84.6,52.3,28.76,South,180,7.4,15.9,33,0.00,,,0.00,VWS V14.01,2013-09-06 15:55:00,
2013-09-06 11:00:00,84.9,52.6,28.76,SSE,158,8.5,11.9,33,0.00,,,0.00,VWS V14.01,2013-09-06 16:00:00,
2013-09-06 11:05:00,84.9,51.8,28.76,SSW,202,8.1,16.8,32,0.00,,,0.00,VWS V14.01,2013-09-06 16:05:00,
2013-09-06 11:10:00,85.5,53.1,28.76,SSE,158,6.7,13.2,33,0.00,,,0.00,VWS V14.01,2013-09-06 16:10:00,
2013-09-06 11:15:00,85.6,52.4,28.76,South,180,10.7,13.2,32,0.00,,,0.00,VWS V14.01,2013-09-06 16:15:00,
2013-09-06 11:20:00,85.8,52.6,28.76,SSE,158,6.3,15.4,32,0.00,,,0.00,VWS V14.01,2013-09-06 16:20:00,
2013-09-06 11:25:00,86.4,53.0,28.76,SSE,158,6.3,12.5,32,0.00,,,0.00,VWS V14.01,2013-09-06 16:25:00,
2013-09-06 11:30:00,86.9,53.5,28.76,SSW,202,8.5,12.5,32,0.00,,,0.00,VWS V14.01,2013-09-06 16:30:00,
2013-09-06 11:35:00,87.1,53.7,28.76,South,180,8.7,12.1,32,0.00,,,0.00,VWS V14.01,2013-09-06 16:35:00,
2013-09-06 11:40:00,87.3,53.8,28.76,SSE,158,5.4,13.2,32,0.00,,,0.00,VWS V14.01,2013-09-06 16:40:00,
2013-09-06 11:45:00,87.6,53.3,28.76,SSW,202,9.6,13.2,31,0.00,,,0.00,VWS V14.01,2013-09-06 16:45:00,
2013-09-06 11:50:00,87.8,52.5,28.76,SSW,202,11.0,14.3,30,0.00,,,0.00,VWS V14.01,2013-09-06 16:50:00,
2013-09-06 11:55:00,88.7,53.3,28.73,SSW,202,9.8,11.9,30,0.00,,,0.00,VWS V14.01,2013-09-06 16:55:00,
2013-09-06 12:00:00,89.2,53.8,28.73,South,180,8.5,11.0,30,0.00,,,0.00,VWS V14.01,2013-09-06 17:00:00,
2013-09-06 12:05:00,88.9,52.5,28.73,WSW,248,10.1,13.6,29,0.00,,,0.00,VWS V14.01,2013-09-06 17:05:00,
2013-09-06 12:10:00,89.1,53.6,28.73,SSE,158,8.5,15.4,30,0.00,,,0.00,VWS V14.01,2013-09-06 17:10:00,
2013-09-06 12:15:00,88.2,52.8,28.73,South,180,6.0,17.2,30,0.00,,,0.00,VWS V14.01,2013-09-06 17:15:00,
2013-09-06 12:20:00,88.7,52.4,28.73,SSE,158,17.0,17.0,29,0.00,,,0.00,VWS V14.01,2013-09-06 17:20:00,
2013-09-06 12:21:00,88.7,52.4,28.73,SSE,158,17.0,17.0,29,0.00,,,0.00,VWS V14.01,2013-09-06 17:21:00,
2013-09-06 12:25:00,89.1,53.6,28.73,SSW,202,7.6,17.7,30,0.00,,,0.00,VWS V14.01,2013-09-06 17:25:00,
2013-09-06 12:30:00,89.2,52.9,28.73,SSE,158,13.4,15.2,29,0.00,,,0.00,VWS V14.01,2013-09-06 17:30:00,
2013-09-06 12:35:00,87.1,53.7,28.76,South,180,8.7,12.1,32,0.00,,,0.00,VWS V14.01,2013-09-06 17:35:00,
2013-09-06 12:40:00,87.3,53.8,28.76,SSE,158,5.4,13.2,32,0.00,,,0.00,VWS V14.01,2013-09-06 17:40:00,
2013-09-06 12:45:00,87.6,53.3,28.76,SSW,202,9.6,13.2,31,0.00,,,0.00,VWS V14.01,2013-09-06 17:45:00,
2013-09-06 12:50:00,87.8,52.5,28.76,SSW,202,11.0,14.3,30,0.00,,,0.00,VWS V14.01,2013-09-06 17:50:00,
2013-09-06 12:55:00,90.1,52.7,28.73,South,180,10.3,10.7,28,0.00,,,0.00,VWS V14.01,2013-09-06 17:55:00,
2013-09-06 13:00:00,89.6,52.2,28.73,South,180,15.9,17.2,28,0.00,,,0.00,VWS V14.01,2013-09-06 18:00:00,
2013-09-06 13:01:00,89.6,52.2,28.73,South,180,15.9,17.2,28,0.00,,,0.00,VWS V14.01,2013-09-06 18:01:00,
2013-09-06 13:05:00,88.9,52.5,28.73,WSW,248,10.1,13.6,29,0.00,,,0.00,VWS V14.01,2013-09-06 18:05:00,
2013-09-06 13:10:00,89.1,53.6,28.73,SSE,158,8.5,15.4,30,0.00,,,0.00,VWS V14.01,2013-09-06 18:10:00,
2013-09-06 13:15:00,88.2,52.8,28.73,South,180,6.0,17.2,30,0.00,,,0.00,VWS V14.01,2013-09-06 18:15:00,
2013-09-06 13:20:00,88.7,52.4,28.73,SSE,158,17.0,17.0,29,0.00,,,0.00,VWS V14.01,2013-09-06 18:20:00,
2013-09-06 13:25:00,89.1,53.6,28.73,SSW,202,7.6,17.7,30,0.00,,,0.00,VWS V14.01,2013-09-06 18:25:00,
2013-09-06 13:30:00,89.2,52.9,28.73,SSE,158,13.4,15.2,29,0.00,,,0.00,VWS V14.01,2013-09-06 18:30:00,
2013-09-06 13:55:00,90.1,52.7,28.73,South,180,10.3,10.7,28,0.00,,,0.00,VWS V14.01,2013-09-06 18:55:00,
2013-09-06 14:00:00,89.6,52.2,28.73,South,180,15.9,17.2,28,0.00,,,0.00,VWS V14.01,2013-09-06 19:00:00,
2013-09-06 14:40:00,92.1,53.4,28.67,SSE,158,8.7,17.9,27,0.00,,,0.00,VWS V14.01,2013-09-06 19:40:00,
2013-09-06 14:45:00,92.5,53.7,28.67,SSE,158,10.3,13.0,27,0.00,,,0.00,VWS V14.01,2013-09-06 19:45:00,
2013-09-06 14:50:00,92.3,53.5,28.67,South,180,13.0,15.2,27,0.00,,,0.00,VWS V14.01,2013-09-06 19:50:00,
2013-09-06 14:53:00,92.3,53.5,28.67,South,180,13.0,15.2,27,0.00,,,0.00,VWS V14.01,2013-09-06 19:53:00,
2013-09-06 14:55:00,92.3,53.5,28.67,South,180,9.8,15.4,27,0.00,,,0.00,VWS V14.01,2013-09-06 19:55:00,
2013-09-06 15:00:00,92.5,53.7,28.67,SSW,202,10.5,15.9,27,0.00,,,0.00,VWS V14.01,2013-09-06 20:00:00,
2013-09-06 15:05:00,93.0,54.1,28.67,South,180,8.1,15.4,27,0.00,,,0.00,VWS V14.01,2013-09-06 20:05:00,
2013-09-06 15:10:00,92.8,54.0,28.67,SSW,202,9.8,14.5,27,0.00,,,0.00,VWS V14.01,2013-09-06 20:10:00,
2013-09-06 15:15:00,92.8,54.0,28.67,SSE,158,13.0,17.5,27,0.00,,,0.00,VWS V14.01,2013-09-06 20:15:00,
2013-09-06 15:20:00,92.8,54.0,28.67,South,180,12.3,20.8,27,0.00,,,0.00,VWS V14.01,2013-09-06 20:20:00,
2013-09-06 15:25:00,92.8,54.0,28.67,SSW,202,6.3,20.4,27,0.00,,,0.00,VWS V14.01,2013-09-06 20:25:00,
2013-09-06 15:30:00,92.5,53.7,28.67,SSW,202,9.8,15.4,27,0.00,,,0.00,VWS V14.01,2013-09-06 20:30:00,
2013-09-06 15:35:00,92.7,53.8,28.67,SSE,158,8.7,11.4,27,0.00,,,0.00,VWS V14.01,2013-09-06 20:35:00,
2013-09-06 15:40:00,92.3,53.5,28.67,SSE,158,12.5,17.5,27,0.00,,,0.00,VWS V14.01,2013-09-06 20:40:00,
2013-09-06 15:45:00,92.1,53.4,28.67,SSE,158,9.8,14.3,27,0.00,,,0.00,VWS V14.01,2013-09-06 20:45:00,
2013-09-06 15:50:00,91.8,53.1,28.67,SSW,202,14.1,17.7,27,0.00,,,0.00,VWS V14.01,2013-09-06 20:50:00,
2013-09-06 15:55:00,91.6,52.9,28.64,SSE,158,12.8,17.7,27,0.00,,,0.00,VWS V14.01,2013-09-06 20:55:00,
2013-09-06 16:00:00,91.8,53.1,28.64,South,180,12.5,17.2,27,0.00,,,0.00,VWS V14.01,2013-09-06 21:00:00,
2013-09-06 16:05:00,91.8,53.1,28.64,SSE,158,10.3,16.3,27,0.00,,,0.00,VWS V14.01,2013-09-06 21:05:00,
2013-09-06 16:10:00,92.1,53.4,28.64,SSW,202,7.2,15.9,27,0.00,,,0.00,VWS V14.01,2013-09-06 21:10:00,
2013-09-06 16:15:00,92.1,53.4,28.64,South,180,17.0,17.0,27,0.00,,,0.00,VWS V14.01,2013-09-06 21:15:00,
2013-09-06 16:20:00,91.6,52.9,28.64,South,180,12.3,19.0,27,0.00,,,0.00,VWS V14.01,2013-09-06 21:20:00,
2013-09-06 16:25:00,91.8,53.1,28.64,SSE,158,10.7,14.3,27,0.00,,,0.00,VWS V14.01,2013-09-06 21:25:00,
2013-09-06 16:30:00,91.8,53.1,28.64,SW,225,8.7,15.4,27,0.00,,,0.00,VWS V14.01,2013-09-06 21:30:00,
2013-09-06 16:35:00,91.8,53.1,28.64,SSE,158,8.1,11.2,27,0.00,,,0.00,VWS V14.01,2013-09-06 21:35:00,
2013-09-06 16:40:00,91.2,52.6,28.64,SSE,158,5.6,15.2,27,0.00,,,0.00,VWS V14.01,2013-09-06 21:40:00,
2013-09-06 16:45:00,91.2,52.6,28.64,SSW,202,12.5,12.8,27,0.00,,,0.00,VWS V14.01,2013-09-06 21:45:00,
2013-09-06 16:50:00,91.0,52.5,28.64,South,180,12.3,14.1,27,0.00,,,0.00,VWS V14.01,2013-09-06 21:50:00,
2013-09-06 16:55:00,91.0,53.4,28.64,South,180,14.3,17.5,28,0.00,,,0.00,VWS V14.01,2013-09-06 21:55:00,
2013-09-06 17:00:00,90.7,53.1,28.64,South,180,10.5,14.3,28,0.00,,,0.00,VWS V14.01,2013-09-06 22:00:00,
2013-09-06 17:05:00,90.7,53.1,28.64,SSE,158,14.5,16.1,28,0.00,,,0.00,VWS V14.01,2013-09-06 22:05:00,
2013-09-06 17:10:00,90.5,53.0,28.64,SSW,202,14.8,19.9,28,0.00,,,0.00,VWS V14.01,2013-09-06 22:10:00,
2013-09-06 17:15:00,90.3,52.8,28.64,South,180,12.3,17.7,28,0.00,,,0.00,VWS V14.01,2013-09-06 22:15:00,
2013-09-06 17:20:00,90.1,52.7,28.64,South,180,12.3,13.9,28,0.00,,,0.00,VWS V14.01,2013-09-06 22:20:00,
2013-09-06 17:25:00,90.0,52.5,28.61,South,180,10.3,17.7,28,0.00,,,0.00,VWS V14.01,2013-09-06 22:25:00,
2013-09-06 17:30:00,89.8,52.4,28.61,South,180,10.7,15.2,28,0.00,,,0.00,VWS V14.01,2013-09-06 22:30:00,
2013-09-06 17:35:00,89.6,52.2,28.61,South,180,12.8,17.2,28,0.00,,,0.00,VWS V14.01,2013-09-06 22:35:00,
2013-09-06 17:40:00,89.4,52.1,28.64,South,180,13.0,17.7,28,0.00,,,0.00,VWS V14.01,2013-09-06 22:40:00,
2013-09-06 17:45:00,89.2,51.9,28.64,South,180,8.1,19.7,28,0.00,,,0.00,VWS V14.01,2013-09-06 22:45:00,
2013-09-06 17:50:00,89.1,51.8,28.64,SSE,158,10.5,17.0,28,0.00,,,0.00,VWS V14.01,2013-09-06 22:50:00,
2013-09-06 17:55:00,88.7,51.4,28.61,SSE,158,8.5,16.8,28,0.00,,,0.00,VWS V14.01,2013-09-06 22:55:00,
2013-09-06 18:00:00,88.9,51.6,28.61,SSW,202,11.0,13.2,28,0.00,,,0.00,VWS V14.01,2013-09-06 23:00:00,
2013-09-06 18:05:00,88.9,51.6,28.61,South,180,6.3,13.0,28,0.00,,,0.00,VWS V14.01,2013-09-06 23:05:00,
2013-09-06 18:10:00,88.7,52.4,28.61,South,180,8.5,12.5,29,0.00,,,0.00,VWS V14.01,2013-09-06 23:10:00,
2013-09-06 18:15:00,88.5,52.2,28.61,SSE,158,6.5,13.9,29,0.00,,,0.00,VWS V14.01,2013-09-06 23:15:00,
2013-09-06 18:20:00,88.5,52.2,28.61,SSW,202,10.5,13.6,29,0.00,,,0.00,VWS V14.01,2013-09-06 23:20:00,
2013-09-06 18:25:00,88.3,52.1,28.61,SSE,158,7.6,12.8,29,0.00,,,0.00,VWS V14.01,2013-09-06 23:25:00,
2013-09-06 18:30:00,88.0,51.8,28.61,South,180,7.4,12.3,29,0.00,,,0.00,VWS V14.01,2013-09-06 23:30:00,
2013-09-06 18:35:00,87.1,51.0,28.61,SSW,202,6.5,10.5,29,0.00,,,0.00,VWS V14.01,2013-09-06 23:35:00,
2013-09-06 18:40:00,87.3,51.2,28.61,SSE,158,6.5,11.0,29,0.00,,,0.00,VWS V14.01,2013-09-06 23:40:00,
2013-09-06 18:45:00,87.3,51.2,28.61,South,180,8.1,9.8,29,0.00,,,0.00,VWS V14.01,2013-09-06 23:45:00,
2013-09-06 18:50:00,87.1,51.0,28.61,South,180,8.7,12.1,29,0.00,,,0.00,VWS V14.01,2013-09-06 23:50:00,
2013-09-06 18:55:00,86.7,50.7,28.61,South,180,7.2,10.5,29,0.00,,,0.00,VWS V14.01,2013-09-06 23:55:00,
2013-09-06 19:00:00,86.4,51.3,28.61,South,180,8.5,13.9,30,0.00,,,0.00,VWS V14.01,2013-09-07 00:00:00,
2013-09-06 19:05:00,85.3,50.4,28.61,SSE,158,9.8,10.5,30,0.00,,,0.00,VWS V14.01,2013-09-07 00:05:00,
2013-09-06 19:10:00,85.5,50.5,28.61,South,180,8.1,12.1,30,0.00,,,0.00,VWS V14.01,2013-09-07 00:10:00,
2013-09-06 19:15:00,84.9,50.1,28.61,SSW,202,8.1,11.0,30,0.00,,,0.00,VWS V14.01,2013-09-07 00:15:00,
2013-09-06 19:20:00,84.4,50.5,28.61,SSW,202,5.6,8.5,31,0.00,,,0.00,VWS V14.01,2013-09-07 00:20:00,
2013-09-06 19:25:00,83.8,50.0,28.61,SSE,158,5.8,9.4,31,0.00,,,0.00,VWS V14.01,2013-09-07 00:25:00,
2013-09-06 19:30:00,82.9,50.1,28.61,South,180,3.6,9.6,32,0.00,,,0.00,VWS V14.01,2013-09-07 00:30:00,
2013-09-06 19:35:00,82.0,50.1,28.61,SSE,158,4.7,7.4,33,0.00,,,0.00,VWS V14.01,2013-09-07 00:35:00,
2013-09-06 19:40:00,81.5,50.5,28.61,South,180,5.4,9.6,34,0.00,,,0.00,VWS V14.01,2013-09-07 00:40:00,
2013-09-06 19:45:00,81.0,50.8,28.61,South,180,5.8,8.7,35,0.00,,,0.00,VWS V14.01,2013-09-07 00:45:00,
2013-09-06 19:50:00,80.6,51.2,28.61,SSW,202,7.6,8.7,36,0.00,,,0.00,VWS V14.01,2013-09-07 00:50:00,
2013-09-06 19:55:00,80.2,51.6,28.61,SSE,158,6.0,7.6,37,0.00,,,0.00,VWS V14.01,2013-09-07 00:55:00,
2013-09-06 20:00:00,79.7,52.6,28.61,SSE,158,5.8,7.4,39,0.00,,,0.00,VWS V14.01,2013-09-07 01:00:00,
2013-09-06 20:05:00,79.3,53.0,28.61,South,180,6.7,7.2,40,0.00,,,0.00,VWS V14.01,2013-09-07 01:05:00,
2013-09-06 20:10:00,79.0,52.6,28.61,SE,135,5.6,8.5,40,0.00,,,0.00,VWS V14.01,2013-09-07 01:10:00,
2013-09-06 20:15:00,78.8,52.5,28.61,South,180,4.0,7.6,40,0.00,,,0.00,VWS V14.01,2013-09-07 01:15:00,
2013-09-06 20:20:00,78.6,53.0,28.61,South,180,4.3,7.8,41,0.00,,,0.00,VWS V14.01,2013-09-07 01:20:00,
2013-09-06 20:25:00,78.1,53.2,28.61,SSE,158,5.6,7.6,42,0.00,,,0.00,VWS V14.01,2013-09-07 01:25:00,
2013-09-06 20:30:00,77.7,52.8,28.61,SSE,158,5.8,6.5,42,0.00,,,0.00,VWS V14.01,2013-09-07 01:30:00,
2013-09-06 20:35:00,77.4,52.5,28.61,South,180,5.6,6.5,42,0.00,,,0.00,VWS V14.01,2013-09-07 01:35:00,
2013-09-06 20:40:00,77.0,52.8,28.61,SSE,158,3.8,5.6,43,0.00,,,0.00,VWS V14.01,2013-09-07 01:40:00,
2013-09-06 20:45:00,76.5,53.6,28.61,SSE,158,5.8,7.4,45,0.00,,,0.00,VWS V14.01,2013-09-07 01:45:00,
2013-09-06 20:50:00,76.1,53.2,28.61,SSE,158,3.8,6.5,45,0.00,,,0.00,VWS V14.01,2013-09-07 01:50:00,
2013-09-06 20:55:00,75.7,53.5,28.61,SSE,158,5.4,6.0,46,0.00,,,0.00,VWS V14.01,2013-09-07 01:55:00,
2013-09-06 21:00:00,75.6,53.9,28.61,SSE,158,4.9,6.0,47,0.00,,,0.00,VWS V14.01,2013-09-07 02:00:00,
2013-09-06 21:05:00,75.6,53.9,28.61,SSE,158,4.7,7.4,47,0.00,,,0.00,VWS V14.01,2013-09-07 02:05:00,
2013-09-06 21:10:00,75.6,54.5,28.61,SSE,158,5.6,6.3,48,0.00,,,0.00,VWS V14.01,2013-09-07 02:10:00,
2013-09-06 21:15:00,75.6,54.5,28.61,South,180,6.5,7.6,48,0.00,,,0.00,VWS V14.01,2013-09-07 02:15:00,
2013-09-06 21:20:00,75.6,54.5,28.61,SSE,158,4.9,7.2,48,0.00,,,0.00,VWS V14.01,2013-09-07 02:20:00,
2013-09-06 21:25:00,75.4,54.3,28.64,South,180,6.5,6.7,48,0.00,,,0.00,VWS V14.01,2013-09-07 02:25:00,
2013-09-06 21:30:00,75.2,54.8,28.64,South,180,4.0,7.2,49,0.00,,,0.00,VWS V14.01,2013-09-07 02:30:00,
2013-09-06 21:35:00,74.8,55.0,28.64,SSE,158,3.8,6.0,50,0.00,,,0.00,VWS V14.01,2013-09-07 02:35:00,
2013-09-06 21:40:00,74.5,55.2,28.61,SSE,158,6.0,6.0,51,0.00,,,0.00,VWS V14.01,2013-09-07 02:40:00,
2013-09-06 21:45:00,74.3,55.6,28.61,SSE,158,5.8,6.0,52,0.00,,,0.00,VWS V14.01,2013-09-07 02:45:00,
2013-09-06 21:50:00,74.1,55.4,28.61,SSE,158,5.4,6.3,52,0.00,,,0.00,VWS V14.01,2013-09-07 02:50:00,
2013-09-06 21:55:00,73.9,55.8,28.61,South,180,4.3,6.3,53,0.00,,,0.00,VWS V14.01,2013-09-07 02:55:00,
2013-09-06 22:00:00,73.8,56.1,28.61,SSE,158,5.4,7.2,54,0.00,,,0.00,VWS V14.01,2013-09-07 03:00:00,
2013-09-06 22:05:00,73.6,55.9,28.61,SSE,158,4.9,6.5,54,0.00,,,0.00,VWS V14.01,2013-09-07 03:05:00,
2013-09-06 22:10:00,73.2,56.6,28.61,SSE,158,4.7,6.0,56,0.00,,,0.00,VWS V14.01,2013-09-07 03:10:00,
2013-09-06 22:15:00,73.2,57.1,28.61,SSE,158,4.3,7.4,57,0.00,,,0.00,VWS V14.01,2013-09-07 03:15:00,
2013-09-06 22:20:00,73.0,56.9,28.61,South,180,4.9,6.0,57,0.00,,,0.00,VWS V14.01,2013-09-07 03:20:00,
2013-09-06 22:25:00,72.9,57.2,28.61,SSE,158,4.3,5.6,58,0.00,,,0.00,VWS V14.01,2013-09-07 03:25:00,
2013-09-06 22:30:00,72.7,57.5,28.61,SSE,158,3.4,5.6,59,0.00,,,0.00,VWS V14.01,2013-09-07 03:30:00,
2013-09-06 22:35:00,72.5,57.4,28.61,SSE,158,3.6,5.4,59,0.00,,,0.00,VWS V14.01,2013-09-07 03:35:00,
2013-09-06 22:40:00,72.1,57.5,28.61,South,180,4.0,4.7,60,0.00,,,0.00,VWS V14.01,2013-09-07 03:40:00,
2013-09-06 22:45:00,72.0,57.8,28.61,SSE,158,3.6,4.9,61,0.00,,,0.00,VWS V14.01,2013-09-07 03:45:00,
2013-09-06 22:50:00,71.8,58.1,28.61,SSE,158,4.0,5.6,62,0.00,,,0.00,VWS V14.01,2013-09-07 03:50:00,
2013-09-06 22:55:00,71.4,58.2,28.61,SE,135,5.4,5.4,63,0.00,,,0.00,VWS V14.01,2013-09-07 03:55:00,
2013-09-06 23:00:00,71.2,58.0,28.61,South,180,2.9,5.4,63,0.00,,,0.00,VWS V14.01,2013-09-07 04:00:00,
2013-09-06 23:05:00,71.1,58.3,28.61,SSE,158,4.0,4.0,64,0.00,,,0.00,VWS V14.01,2013-09-07 04:05:00,
2013-09-06 23:10:00,70.9,58.1,28.61,SSE,158,3.1,4.0,64,0.00,,,0.00,VWS V14.01,2013-09-07 04:10:00,
2013-09-06 23:15:00,70.5,58.2,28.61,South,180,3.8,3.8,65,0.00,,,0.00,VWS V14.01,2013-09-07 04:15:00,
2013-09-06 23:20:00,70.3,58.5,28.61,SSE,158,3.6,4.0,66,0.00,,,0.00,VWS V14.01,2013-09-07 04:20:00,
2013-09-06 23:25:00,70.2,59.1,28.61,SSE,158,4.3,4.3,68,0.00,,,0.00,VWS V14.01,2013-09-07 04:25:00,
2013-09-06 23:30:00,70.0,59.3,28.61,SSE,158,4.9,4.9,69,0.00,,,0.00,VWS V14.01,2013-09-07 04:30:00,
2013-09-06 23:35:00,70.2,59.9,28.61,SSE,158,4.3,6.0,70,0.00,,,0.00,VWS V14.01,2013-09-07 04:35:00,
2013-09-06 23:40:00,70.3,60.1,28.61,SSE,158,6.3,6.3,70,0.00,,,0.00,VWS V14.01,2013-09-07 04:40:00,
2013-09-06 23:45:00,70.5,60.3,28.61,SSE,158,4.0,6.3,70,0.00,,,0.00,VWS V14.01,2013-09-07 04:45:00,
2013-09-06 23:50:00,70.5,60.3,28.61,SSE,158,4.3,6.0,70,0.00,,,0.00,VWS V14.01,2013-09-07 04:50:00,
2013-09-06 23:55:00,70.5,59.9,28.61,SSE,158,3.6,4.9,69,0.00,,,0.00,VWS V14.01,2013-09-07 04:55:00,